www.pogodaiklimat.ru

Погода и климат >> Архив погоды >> Греция >> Samos


ПОГОДА в Samos

  • Прогноз погоды в Samos
  • Монитор погоды в Samos
  • Климат города

АРХИВ ПОГОДЫ в Samos

Время (UTC), дата Ветер
(напр.,м/с)
 
Видим.   Явления Облачность Т
(С)
Тd
(С)
f
(%)
Тe
(С)
Тes
(С)
Комфортность P
(гПа)
Po
(гПа)
Тmin
(С)
Tmax
(С)
R
(мм)
R24
(мм)
S
(см)
03 9.12 ЮВ 6
{8}
10 км 4/4 600 м
[Cu med, cong]
+13.0 +10.3 84 +11 +11 1014.3 1013.0
06 9.12 Ю 4
{5}
10 км слабый дождь 8/8 600 м
[Sc]
+14.0 +11.8 87 +12 +12 1013.8 1012.5 +7.6 0.0
09 9.12 ЮВ 9
{11}
5000 м дождь 10/8 540 м
[Cu Sc As op]
+14.0 +12.5 91 +11 +11 1011.8 1010.5
12 9.12 Ю 9
{16}
9000 м слабый дождь 10/6 450 м
[Frnb As op]
+16.0 +12.4 79 +14 +14 1010.2 1008.9 33
15 9.12 З 3
{9}
10 км в посл. час дождь 6/4 540 м
[Sc Ac lent]
+15.0 +11.3 79 +14 +14 1009.6 1008.3
18 9.12 штиль 0
{4}
10 км 4/4 540 м
[Sc Ac lent]
+12.6 +8.6 77 +12 +12 1010.3 1009.0 +16.0 34
03 10.12 ЮВ 4
{5}
10 км 10/6 540 м
[Cu Sc As op]
+12.6 +11.5 93 +11 +11 1008.9 1007.5
06 10.12 ЮЗ 4
{5}
10 км 5/5 600 м
[Cu med, cong]
+14.4 +11.4 82 +13 +13 1008.3 1007.0 +12.6
09 10.12 Ю 7
{9}
10 км слабый дождь 9/9 540 м
[Cu Sc]
+15.0 +13.2 89 +13 +13 1006.9 1005.5
12 10.12 Ю 9
{17}
8000 м дождь {морось} 9/8 450 м
[St Ac und]
+17.2 +13.7 80 +16 +16 1001.5 1000.2 3
15 10.12 З 6
{19}
10 км {дождь} 5/4 480 м
[Cu Sc Ac und]
+14.6 +11.6 82 +13 +13 1001.0 999.6
18 10.12 СЗ 5
{14}
10 км 6/5 480 м
[Cu Sc Ac und]
+12.2 +9.4 83 +10 +10 1003.6 1002.3 +17.2 6
03 11.12 С 3
{6}
10 км 4/4 300 м
[Cu hum]
+9.8 +5.0 72 +8 +8 1009.9 1008.6
06 11.12 С 1
{6}
10 км 5/3 540 м
[Cu hum Ac und]
+8.6 +4.5 75 +8 +8 1011.3 1009.9 +8.6 2
09 11.12 штиль 0
{4}
10 км 9/5 540 м
[Cu Sc Ac und]
+10.8 +5.6 70 +10 +12 1012.9 1011.5
12 11.12
{4}
10 км 8/5 540 м
[Cu Sc Ac trans]
+13.4 +7.8 69 1011.6 1010.3
15 11.12 СЗ 2
{4}
10 км дождь 10/5 540 м
[Cu Sc Ac As]
+12.4 +11.3 93 +11 +11 1012.3 1011.0
18 11.12 штиль 0
{3}
10 км слабый дождь 10/6 540 м
[Cu Sc Ac As]
+10.2 +8.6 90 +9 +9 1012.3 1011.0 +13.4 10
03 12.12 СЗ 2
{5}
10 км 3/3 600 м
[Cu hum Ac lent]
+7.4 +6.1 91 +5 +5 1013.5 1012.2
06 12.12 СЗ 4
{6}
10 км {дождь} 5/5 300 м
[Sc Ac lent]
+8.4 +3.8 73 +5 +5 1015.6 1014.3 +7.4 0.7
09 12.12 З 7
{11}
10 км 5/5 300 м
[Sc]
+11.4 +4.3 62 +8 +9 1017.4 1016.0
12 12.12 СЗ 6
{8}
10 км 5/5 300 м
[Sc]
+13.8 +5.9 59 +12 +13 1017.9 1016.6
15 12.12 СВ 3
{6}
10 км 5/5 300 м
[Sc]
+12.4 +5.6 63 +11 +11 1019.3 1017.9
18 12.12 штиль 0
{6}
10 км 5/5 300 м
[Sc]
+8.0 +4.8 80 +7 +7 1021.1 1019.8 +14.0
03 13.12 штиль 0
{3}
10 км 3/3 300 м
[Cu med, cong]
+2.8 +0.1 82 +2 +2 1022.9 1021.4
06 13.12 штиль 0
{3}
10 км 4/0 2000 м
[Ac trans]
+4.4 +0.2 74 +4 +4 1023.3 1021.8 +2.8 697
09 13.12 СВ 3
{4}
10 км 8/0
[Ac trans]
+6.4 +1.4 70 +4 +6 1023.0 1021.5
12 13.12 СВ 2
{7}
10 км 10/4 600 м
[Cu Sc As trans]
+11.4 +0.2 46 +11 +12 1020.7 1019.4
15 13.12 СВ 2
{5}
9000 м слабый дождь 10/8 540 м
[Cu Sc As op]
+7.8 +4.6 80 +6 +6 1020.0 1018.7
18 13.12 Ю 4
{6}
9000 м слабый дождь 10/6 540 м
[Cu Sc As op]
+7.4 +6.5 94 +4 +4 1018.5 1017.1 +11.4 6
03 14.12 ЮВ 5
{6}
10 км 9/6 540 м
[Cu Sc Ac und]
+14.0 +11.4 84 +12 +12 1018.0 1016.7
06 14.12 ЮВ 4 10 км 9/9 480 м
[Cu Sc Ac und]
+14.4 +11.8 84 +13 +13 1018.7 1017.4 +7.4 0.6
09 14.12 Ю 3
{7}
10 км в посл. час дождь 8/5 360 м
[St Ac und]
+15.2 +13.4 89 +15 +16 1019.6 1018.3
12 14.12 Ю 2
{5}
10 км {дождь} 9/6 360 м
[Cu Sc Ac As]
+16.2 +12.6 79 +16 +17 1019.9 1018.6 0.1
15 14.12 З 2
{6}
10 км {дождь} 9/6 480 м
[Cu Sc Ac As]
+15.4 +13.6 89 +15 +15 1019.9 1018.6
18 14.12 штиль 0
{4}
10 км {дождь} 9/6 480 м
[Cu Sc Ac As]
+13.6 +12.5 93 +13 +13 1021.0 1019.6 +16.4 2
03 15.12 ЮВ 7
{8}
10 км 6/3 600 м
[Cu med, cong Ac trans]
+16.0 +12.4 79 +15 +15 1019.9 1018.6
06 15.12 ЮВ 7
{10}
10 км 6/5 450 м
[Cu Sc Ac trans]
+16.4 +12.4 77 +15 +15 1019.8 1018.5 +13.6
09 15.12 ЮВ 7
{9}
10 км 9/4 540 м
[Cu med, cong Ac trans Ci fib]
+17.4 +11.6 69 +16 +17 1019.9 1018.6
12 15.12 ЮВ 7
{8}
10 км 9/6 540 м
[Cu Sc Ac As]
+18.0 +13.4 74 +17 +17 1018.3 1017.0
15 15.12 ЮВ 7
{10}
10 км 9/6 540 м
[Cu Sc Ac As]
+17.0 +13.5 80 +16 +16 1017.4 1016.0
18 15.12 ЮВ 6
{10}
10 км 9/6 540 м
[Cu Sc Ac As]
+15.6 +13.8 89 +14 +14 1017.3 1015.9 +18.2

 

Местоположение метеостанции Samos (Греция): широта 37.70 долгота 26.92 высота над уровнем моря 7 м.

В архиве по умолчанию представлена погода в Samos за последнюю неделю. Архивные данные за месяц целиком и за предыдущие месяцы, начиная с января 2011 года, Вы можете получить, выбрав интересующий диапазон дат из раскрывающегося списка и нажав кнопку "Ввод!".


*Определитесь, кто Вы:
робот инопланетянин человек

Внимание! Время в таблицах - всемирное. Для получения местного времени необходимо прибавить поправку, которая в Samos равна 2 ч.

Смотрите также архив погоды в соседних городах и на ближайших метеорологических станциях:

Погода в Kusadasi (Турция) (35 км)
Погода в Izmir Airport (Турция) (67 км)
Погода в Aydin (Турция) (83 км)
Погода в Izmir (Турция) (84 км)
Погода в Bodrum Milas (Турция) (84 км)
Погода в Cesme (Турция) (86 км)
Погода в Bodrum (Турция) (87 км)
Погода в Izmir / Cigli (Турция) (89 км)
Погода в Chios (Греция) (99 км)
Погода в Kos Airport (Греция) (103 км)

Пояснения к столбцам:

Ветер - указаны скорость ветра в м/с - средняя за 10 мин, порывы в срок и между сроками (в фигурных скобках) и направление, откуда дует ветер: С - северный, СВ - северо-восточный, В - восточный, ЮВ - юго-восточный, Ю - южный, ЮЗ - юго-западный, З - западный, СЗ - северо-западный.
Видимость - горизонтальная дальность видимости в метрах или километрах. При видимости от 1 до 10 км при отсутствии осадков обычно наблюдается дымка, при ухудшении видимости до 1 км и менее - туман. В сухую погоду видимость может ухудшаться дымом, пылью или мглою.
Явления - указаны атмосферные явления, наблюдавшиеся в срок или в последний час перед сроком; фигурными скобками обозначены явления, наблюдавшиеся между сроками (за 1-3 часа до срока); квадратными скобками обозначены град или гололедные отложения с указанием их диаметра в мм.
Облачность - указаны через наклонную черту общая и нижняя облачность в баллах и высота нижней границы облаков в метрах; квадратными скобками обозначены формы облаков: Ci - перистые, Cs - перисто-слоистые, Cc - перисто-кучевые, Ac - высококучевые, As - высокослоистые, Sc - слоисто-кучевые, Ns - слоисто-дождевые, Cu - кучевые, Cb - кучево-дождевые. Подробнее классификацию облаков см. в Атласе облаков (PDF).
T - Температура воздуха - температура, измеренная на высоте 2 м над землей.
Td - Температура точки росы - температура, при понижении до которой содержащийся в воздухе водяной пар достигнет насыщения.
f - Относительная влажность воздуха - влажноcть воздуха, измеренная на высоте 2 м над землей.
Te - Эффективная температура - температура, которую ощущает одетый по сезону человек в тени. Характеристика душности погоды. При расчете учитывается влияние влажности воздуха и скорости ветра на теплоощущения человека.
Tes - Эффективная температура на солнце - температура, которую ощущает человек, с поправкой на солнечный нагрев. Характеристика знойности погоды. Зависит от высоты солнца над горизонтом, облачности и скорости ветра. Ночью, в пасмурную погоду, а также при ветре 12 м/с и более поправка равна нулю.
P - Атмосферное давление - приведенное к уровню моря атмосферное давление.
Po - Атмосферное давление - измеренное на уровне метеостанции атмосферное давление.
Tmin - Минимальная температура - минимум температуры воздуха на высоте 2 м над землей.
Tmax - Максимальная температура - максимум температуры воздуха на высоте 2 м над землей.
R - Количество осадков - Количество выпавших осадков за период времени, мм. При наведении курсора мыши на число - период времени, за который выпало указанное количество осадков.
R24 - Количество осадков - Количество выпавших осадков за 24 часа, мм.
S - Снежный покров - Высота снежного покрова, см. При наведении курсора мыши на число - состояние снежного покрова и степень покрытия местности в баллах.